When you browse on this site, cookies collect data to enhance your experience and personalize the content and advertising you see.
Visit our Privacy Policy to learn more. By continuing to use the site, you agree to this use of cookies and data.
  • En España
  • Lista de países
  • Para 7 días
  • Temperatura del agua
  • El tiempo en el mapa
  • Informadores
  • user-avatar
    Iniciar sesión

    Tiempo cada hora Nzérékoré

    Hoy, 28 Febrero, Viernes

    Tiempo Temperatura Precipitaciones Viento Presión Humedad
    00:00 +34°C° 0 mm 2 mps 743 mmHg 18%
    01:00 +34°C° 0 mm 2 mps 743 mmHg 20%
    02:00 +32°C° 0 mm 2 mps 743 mmHg 35%
    03:00 +30°C° 0 mm 2 mps 743 mmHg 50%
    04:00 +29°C° 0 mm 2 mps 742 mmHg 65%
    05:00 +29°C° 0 mm 2 mps 743 mmHg 69%
    06:00 +28°C° 0 mm 2 mps 743 mmHg 73%
    07:00 +28°C° 0 mm 1 mps 744 mmHg 76%
    08:00 +29°C° 0 mm 1 mps 744 mmHg 71%
    09:00 +31°C° 0 mm 1 mps 744 mmHg 65%
    10:00 +32°C° 0 mm 1 mps 745 mmHg 59%
    11:00 +35°C° 0 mm 1 mps 744 mmHg 47%
    12:00 +38°C° 0 mm 2 mps 744 mmHg 36%
    13:00 +40°C° 0 mm 2 mps 743 mmHg 24%
    14:00 +41°C° 0 mm 2 mps 742 mmHg 21%
    15:00 +42°C° 0 mm 2 mps 741 mmHg 18%
    16:00 +43°C° 0 mm 2 mps 740 mmHg 15%
    17:00 +41°C° 0 mm 2 mps 740 mmHg 15%
    18:00 +39°C° 0 mm 2 mps 740 mmHg 15%
    19:00 +37°C° 0 mm 2 mps 740 mmHg 16%
    20:00 +35°C° 0 mm 1 mps 741 mmHg 16%
    21:00 +34°C° 0 mm 1 mps 742 mmHg 16%
    22:00 +32°C° 0 mm 1 mps 742 mmHg 17%
    23:00 +32°C° 0 mm 1 mps 742 mmHg 17%

    Mañana, 29 Febrero, Sábado

    Tiempo Temperatura Precipitaciones Viento Presión Humedad
    00:00 +31°C° 0 mm 1 mps 742 mmHg 18%
    01:00 +31°C° 0 mm 1 mps 742 mmHg 18%
    02:00 +30°C° 0 mm 2 mps 742 mmHg 37%
    03:00 +29°C° 0 mm 3 mps 742 mmHg 55%
    04:00 +28°C° 0 mm 4 mps 742 mmHg 74%
    05:00 +27°C° 0 mm 3 mps 742 mmHg 78%
    06:00 +27°C° 0 mm 3 mps 743 mmHg 83%
    07:00 +26°C° 0 mm 2 mps 743 mmHg 87%
    08:00 +29°C° 0 mm 2 mps 744 mmHg 77%
    09:00 +31°C° 0 mm 3 mps 744 mmHg 66%
    10:00 +35°C° 0 mm 3 mps 745 mmHg 56%
    11:00 +39°C° 0 mm 2 mps 744 mmHg 43%
    12:00 +43°C° 0 mm 1 mps 743 mmHg 31%
    13:00 +44°C° 0 mm 0 mps 742 mmHg 18%
    14:00 +43°C° 0 mm 0 mps 741 mmHg 17%
    15:00 +46°C° 0 mm 1 mps 740 mmHg 16%
    16:00 +45°C° 0 mm 1 mps 739 mmHg 16%
    17:00 +43°C° 0 mm 1 mps 739 mmHg 18%
    18:00 +40°C° 0 mm 1 mps 739 mmHg 20%
    19:00 +37°C° 0 mm 1 mps 739 mmHg 22%
    20:00 +36°C° 0 mm 1 mps 740 mmHg 25%
    21:00 +36°C° 0 mm 2 mps 741 mmHg 28%
    22:00 +35°C° 0 mm 2 mps 742 mmHg 31%
    23:00 +34°C° 0 mm 3 mps 742 mmHg 40%

    Pasado mañana, 1 Marzo, Domingo

    Tiempo Temperatura Precipitaciones Viento Presión Humedad
    00:00 +33°C° 0 mm 4 mps 742 mmHg 49%
    01:00 +32°C° 0 mm 5 mps 742 mmHg 58%
    02:00 +32°C° 0 mm 5 mps 742 mmHg 64%
    03:00 +30°C° 0 mm 5 mps 742 mmHg 71%
    04:00 +29°C° 0 mm 4 mps 742 mmHg 78%
    05:00 +29°C° 0 mm 4 mps 742 mmHg 78%
    06:00 +29°C° 0 mm 4 mps 743 mmHg 77%
    07:00 +29°C° 0 mm 3 mps 743 mmHg 77%
    08:00 +30°C° 0 mm 3 mps 744 mmHg 71%
    09:00 +32°C° 0 mm 4 mps 744 mmHg 66%
    10:00 +33°C° 0 mm 4 mps 745 mmHg 60%
    11:00 +34°C° 0 mm 3 mps 744 mmHg 57%
    12:00 +35°C° 0 mm 3 mps 743 mmHg 53%
    13:00 +36°C° 0 mm 3 mps 743 mmHg 49%
    14:00 +37°C° 0 mm 3 mps 742 mmHg 45%
    15:00 +38°C° 0 mm 3 mps 741 mmHg 42%
    16:00 +39°C° 0 mm 2 mps 740 mmHg 38%
    17:00 +38°C° 0 mm 2 mps 741 mmHg 40%
    18:00 +36°C° 0 mm 2 mps 741 mmHg 42%
    19:00 +35°C° 0 mm 2 mps 741 mmHg 45%
    20:00 +34°C° 0 mm 2 mps 742 mmHg 47%
    21:00 +34°C° 0 mm 3 mps 743 mmHg 49%
    22:00 +33°C° 0 mm 4 mps 743 mmHg 51%
    23:00 +32°C° 0 mm 4 mps 743 mmHg 58%

    2 Marzo, Lunes

    Tiempo Temperatura Precipitaciones Viento Presión Humedad
    00:00 +30°C° 0 mm 4 mps 743 mmHg 64%
    01:00 +29°C° 0 mm 4 mps 743 mmHg 71%
    02:00 +29°C° 0 mm 4 mps 743 mmHg 73%
    03:00 +28°C° 0 mm 4 mps 743 mmHg 76%
    04:00 +28°C° 0 mm 3 mps 743 mmHg 78%
    05:00 +27°C° 0 mm 2 mps 743 mmHg 81%
    06:00 +27°C° 0 mm 2 mps 744 mmHg 83%
    07:00 +27°C° 0 mm 1 mps 744 mmHg 85%
    08:00 +29°C° 0 mm 1 mps 745 mmHg 75%
    09:00 +31°C° 0 mm 2 mps 745 mmHg 64%
    10:00 +34°C° 0 mm 3 mps 746 mmHg 54%
    11:00 +37°C° 0 mm 3 mps 745 mmHg 46%
    12:00 +40°C° 0 mm 2 mps 744 mmHg 38%
    13:00 +43°C° 0 mm 1 mps 743 mmHg 29%
    14:00 +42°C° 0 mm 2 mps 743 mmHg 30%
    15:00 +41°C° 0 mm 2 mps 742 mmHg 30%
    16:00 +41°C° 0 mm 2 mps 741 mmHg 30%
    17:00 +39°C° 0 mm 2 mps 741 mmHg 34%
    18:00 +37°C° 0 mm 2 mps 741 mmHg 38%
    19:00 +36°C° 0 mm 3 mps 741 mmHg 42%
    20:00 +35°C° 0 mm 3 mps 742 mmHg 44%
    21:00 +34°C° 0 mm 3 mps 743 mmHg 47%
    22:00 +33°C° 0 mm 3 mps 744 mmHg 50%
    23:00 +31°C° 0 mm 3 mps 744 mmHg 56%

    3 Marzo, Martes

    Tiempo Temperatura Precipitaciones Viento Presión Humedad
    00:00 +30°C° 0 mm 3 mps 743 mmHg 62%
    01:00 +29°C° 0 mm 3 mps 743 mmHg 67%
    02:00 +28°C° 0 mm 3 mps 743 mmHg 72%
    03:00 +27°C° 0 mm 2 mps 743 mmHg 76%
    04:00 +27°C° 0 mm 2 mps 743 mmHg 81%
    05:00 +27°C° 0 mm 1 mps 743 mmHg 82%
    06:00 +26°C° 0 mm 1 mps 744 mmHg 83%
    07:00 +26°C° 0 mm 1 mps 744 mmHg 84%
    08:00 +29°C° 0.2 mm 2 mps 745 mmHg 73%
    09:00 +31°C° 0.2 mm 3 mps 745 mmHg 61%
    10:00 +35°C° 0.2 mm 4 mps 746 mmHg 50%
    11:00 +39°C° 0 mm 2 mps 745 mmHg 41%
    12:00 +42°C° 0 mm 1 mps 744 mmHg 32%
    13:00 +43°C° 0 mm 0 mps 743 mmHg 23%
    14:00 +45°C° 0 mm 1 mps 742 mmHg 22%
    15:00 +44°C° 0 mm 1 mps 741 mmHg 22%
    16:00 +43°C° 0 mm 1 mps 740 mmHg 21%
    17:00 +41°C° 0 mm 1 mps 741 mmHg 23%
    18:00 +39°C° 0 mm 1 mps 741 mmHg 26%
    19:00 +37°C° 0 mm 1 mps 741 mmHg 28%
    20:00 +36°C° 0 mm 2 mps 742 mmHg 33%
    21:00 +35°C° 0 mm 2 mps 742 mmHg 39%
    22:00 +32°C° 0 mm 2 mps 743 mmHg 44%
    23:00 +33°C° 0 mm 3 mps 743 mmHg 47%

    4 Marzo, Miércoles

    Tiempo Temperatura Precipitaciones Viento Presión Humedad
    00:00 +33°C° 0 mm 3 mps 743 mmHg 49%
    01:00 +32°C° 0 mm 4 mps 743 mmHg 52%
    02:00 +32°C° 0 mm 4 mps 743 mmHg 59%
    03:00 +30°C° 0 mm 3 mps 743 mmHg 65%
    04:00 +29°C° 0 mm 3 mps 742 mmHg 72%
    05:00 +28°C° 0 mm 2 mps 743 mmHg 75%
    06:00 +28°C° 0 mm 2 mps 743 mmHg 78%
    07:00 +28°C° 0 mm 1 mps 744 mmHg 82%
    08:00 +30°C° 0 mm 2 mps 744 mmHg 72%
    09:00 +32°C° 0 mm 2 mps 745 mmHg 62%
    10:00 +35°C° 0 mm 3 mps 746 mmHg 53%
    11:00 +39°C° 0 mm 2 mps 745 mmHg 43%
    12:00 +42°C° 0 mm 1 mps 744 mmHg 33%
    13:00 +43°C° 0 mm 0 mps 743 mmHg 23%
    14:00 +45°C° 0 mm 1 mps 742 mmHg 23%
    15:00 +43°C° 0 mm 1 mps 742 mmHg 23%
    16:00 +42°C° 0 mm 1 mps 741 mmHg 23%
    17:00 +40°C° 0 mm 2 mps 741 mmHg 29%
    18:00 +38°C° 0 mm 3 mps 741 mmHg 35%
    19:00 +36°C° 0 mm 4 mps 741 mmHg 42%
    20:00 +34°C° 0 mm 3 mps 742 mmHg 48%
    21:00 +33°C° 0 mm 3 mps 742 mmHg 54%
    22:00 +30°C° 0 mm 2 mps 742 mmHg 60%
    23:00 +30°C° 0 mm 3 mps 742 mmHg 60%
    Mostrar más